Content
SEND FEEDBACK

Daily
Averages
Monthly
Summary
United States of America

BEACON, NEW YORK


Home > North America > United States > New York
Elevation: 272 feet     Latitude: 41 31N     Longitude: 073 55W

WEATHER
 
SELECT A DAY
Number of Records: 197,435;   Date Range: 1/1/95 - 10/21/14
 
SHARE

PRINT THIS DATA

[ ← Previous Day ]
WEATHER ALMANAC - JULY 16, 2013
[ Next Day → ]
[ °C ]   °F
Weather ElementAverageHighLow
Temperature81.3 °F93 °F (3:53 pm)68 °F (5:53 am)
Dewpoint68.6 °F72 °F (7:53 pm)64 °F (4:53 pm)
Humidity68.9 %96 % (4:53 am)38 % (4:53 pm)
Barometer30.16 in30.21 in (7:53 am)30.12 in (5:53 pm)
Wind Speed3.3 mph11.5 mph (2:53 pm)
Wind Gust20.7 mph (2:53 pm)
Weather ElementAverage
Visibility9.1 mi
Wind DirectionNNE (23.5 °)

Weather ElementTotal
Precipitation---
Cooling Degree Days15.5 (Base 65)
Growing Degree Days30.5 (Base 50)
Averaged from 23 records on July 16, 2013
WEATHER CONDITIONS BREAKOUT
WIND DIRECTION BREAKOUT
WEATHER BY HOUR - JULY 16, 2013
[ °C ]   °F
Local TimeTemperatureDewpointHumidityBarometerVisibilityWind DirectionWind SpeedGust SpeedPrecipitationEventsConditions
1:53 AM73.0 °F71.1 °F93 %30.16 in8.0 miCalmClear
2:53 AM71.1 °F69.1 °F93 %30.16 in8.0 miCalmClear
3:53 AM70.0 °F68.0 °F93 %30.16 in8.0 miCalmClear
4:53 AM69.1 °F68.0 °F96 %30.17 in6.0 miCalmClear
5:53 AM68.0 °F66.0 °F93 %30.19 in4.0 miCalmClear
6:53 AM71.1 °F69.1 °F93 %30.20 in7.0 miCalmClear
7:53 AM75.0 °F69.1 °F82 %30.21 in10.0 miCalmClear
8:53 AM80.1 °F70.0 °F71 %30.21 in10.0 miCalmClear
9:53 AM82.9 °F69.1 °F63 %30.20 in10.0 miNorth (10°)4.6 mphClear
10:53 AM86.0 °F68.0 °F55 %30.19 in10.0 miNNE (30°)6.9 mphClear
11:53 AM88.0 °F69.1 °F53 %30.18 in10.0 miNorth (350°)8.1 mphClear
12:53 PM90.0 °F68.0 °F48 %30.17 in10.0 miNorth (10°)10.4 mph16.1 mphClear
1:53 PM91.9 °F66.0 °F42 %30.15 in10.0 miNorth (10°)6.9 mphClear
2:53 PM91.9 °F66.9 °F44 %30.14 in10.0 miNNE (20°)11.5 mph20.7 mphClear
3:53 PM93.0 °F66.0 °F41 %30.14 in10.0 miNorth (10°)8.1 mphClear
4:53 PM93.0 °F64.0 °F38 %30.13 in10.0 miNNE (20°)8.1 mphClear
5:53 PM91.9 °F64.9 °F41 %30.12 in10.0 miNNE (30°)6.9 mphClear
6:53 PM91.0 °F66.0 °F44 %30.12 in10.0 miNE (50°)3.5 mphOvercast
7:53 PM84.9 °F72.0 °F65 %30.13 in10.0 miCalmClear
8:53 PM80.1 °F72.0 °F76 %30.14 in10.0 miCalmClear
9:53 PM78.1 °F72.0 °F81 %30.16 in10.0 miCalmClear
10:53 PM75.9 °F72.0 °F87 %30.17 in10.0 miCalmClear
11:53 PM73.9 °F72.0 °F93 %30.17 in9.0 miCalmClear
Hourly data recorded from KPOU, located miles away from Beacon, New York







STORIES FROM OUR PARTNERS